Terminal Aerodrome Forecast
Issued by NWS Boise, ID

Home | Current Version | Previous Version | Text Only | Print | Product List | Glossary On
Versions: 1 2 3 4 5 6 7 8 9 10 11 12 13 14 15 16 17 18 19 20 21 22 23 24 25 26 27 28 29 30 31 32 33 34 35 36 37 38 39 40 41 42
678
FTUS45 KBOI 211313 AAA
TAFBNO
TAF AMD
KBNO 211313Z 2113/2212 VRB03KT P6SM SCT020 BKN040
      TEMPO 2113/2115 4SM BR BKN020
     FM212300 VRB06KT P6SM VCSH SCT025 OVC050=

USA.gov is the U.S. government's official web portal to all federal, state and local government web resources and services.